Gilze-Rijen, Netherlands

8:11 PM CEST on May 24, 2018 (GMT +0200)
Gilze-Rijen Air Base

Weather History for EHGR - November, 2012

Change the Weather History Date:

Monday, November 19, 2012

  Actual Average Record
Temperature  
Mean Temperature 40 °F -  
Max Temperature 50 °F 43 °F 57 °F (2003)
Min Temperature 30 °F 34 °F 24 °F (2005)
Degree Days  
Heating Degree Days 25    
Moisture  
Dew Point 43 °F    
Average Humidity 100    
Maximum Humidity 100    
Minimum Humidity 93    
Precipitation  
Precipitation 0.00 in - - ()
Sea Level Pressure  
Sea Level Pressure 29.98 in    
Wind  
Wind Speed 4 mph ()    
Max Wind Speed 9 mph    
Max Gust Speed -    
Visibility 0.9 miles    
Events Fog , Snow    
Averages and records for this station are not official NWS values.
T = Trace of Precipitation, MM = Missing Value Source: Averaged Metar Reports

Daily Weather History Graph

Daily Weather History Graph

Search for Another Location

Airport or City:

Astronomy

Nov. 19, 2012 Rise Set
Actual Time 8:05 AM CET 4:45 PM CET
Civil Twilight 7:28 AM CET 5:22 PM CET
Nautical Twilight 6:46 AM CET 6:03 PM CET
Astronomical Twilight 6:07 AM CET 6:43 PM CET
Moon 12:45 PM CET (11/19) 11:12 PM CET (11/19)
Length of Visible Light 9h 54m
Length of Day
8h 39m
Waxing Crescent, 38% of the Moon is Illuminated
Nov 19
Waxing Crescent
Nov 20
First Quarter
Nov 28
Full
Dec 6
Last Quarter
Dec 13
New

Hourly Weather History & Observations

Time (CET) Temp. Windchill Dew Point Humidity Pressure Visibility Wind Dir Wind Speed Gust Speed Precip Events Conditions
12:25 AM 30.2 °F - 30.2 °F 100% 30.04 in 0.2 mi East 2.3 mph - N/A Fog Light Freezing Fog
12:55 AM 30.2 °F - 30.2 °F 100% 30.04 in 0.2 mi Calm Calm - N/A Fog Light Freezing Fog
1:25 AM 30.2 °F - 30.2 °F 100% 30.04 in 0.2 mi Calm Calm - N/A Fog Light Freezing Fog
1:55 AM 30.2 °F - 30.2 °F 100% 30.04 in 0.2 mi East 1.2 mph - N/A Fog Light Freezing Fog
2:25 AM 30.2 °F - 30.2 °F 100% 30.04 in 0.2 mi East 1.2 mph - N/A Fog Light Freezing Fog
2:55 AM 30.2 °F - 30.2 °F 100% 30.04 in 0.2 mi ESE 2.3 mph - N/A Fog Light Freezing Fog
3:25 AM 30.2 °F - 30.2 °F 100% 30.04 in 0.2 mi East 2.3 mph - N/A Fog Light Freezing Fog
3:55 AM 32.0 °F 28.7 °F 32.0 °F 100% 30.04 in 0.2 mi SE 3.5 mph - N/A Fog Light Freezing Fog
4:25 AM 32.0 °F 28.7 °F 32.0 °F 100% 30.01 in 0.2 mi SE 3.5 mph - N/A Fog Light Freezing Fog
4:55 AM 32.0 °F 28.7 °F 32.0 °F 100% 30.01 in 0.2 mi ESE 3.5 mph - N/A Snow Light Snow Grains
5:25 AM 32.0 °F - 32.0 °F 100% 30.01 in 0.2 mi SE 2.3 mph - N/A Fog Fog
5:55 AM 32.0 °F - 32.0 °F 100% 30.01 in 0.2 mi SE 1.2 mph - N/A Fog Fog
6:25 AM 33.8 °F - 33.8 °F 100% 30.01 in 0.2 mi ESE 2.3 mph - N/A Fog Fog
6:55 AM 35.6 °F 31.7 °F 35.6 °F 100% 30.01 in 0.3 mi East 4.6 mph - N/A Fog Fog
7:25 AM 37.4 °F 34.9 °F 37.4 °F 100% 30.01 in 0.2 mi SE 3.5 mph - N/A Fog Fog
7:55 AM 35.6 °F 28.6 °F 35.6 °F 100% 30.01 in 0.2 mi SE 9.2 mph - N/A   Unknown
8:25 AM 35.6 °F 31.7 °F 35.6 °F 100% 30.01 in 0.2 mi SSE 4.6 mph - N/A Fog Fog
8:40 AM 35.6 °F 30.7 °F 35.6 °F 100% 30.01 in 0.2 mi SSE 5.8 mph - N/A Fog Fog
8:55 AM 35.6 °F 29.9 °F 35.6 °F 100% 30.01 in 0.2 mi SSE 6.9 mph - N/A Fog Fog
9:04 AM 35.6 °F 29.9 °F 35.6 °F 100% 30.01 in 0.1 mi SSE 6.9 mph - N/A Fog Fog
9:25 AM 37.4 °F 32.8 °F 37.4 °F 100% 30.01 in 0.1 mi SSE 5.8 mph - N/A Fog Fog
9:55 AM 37.4 °F 32.1 °F 37.4 °F 100% 30.01 in 0.1 mi South 6.9 mph - N/A Fog Fog
9:56 AM 37.4 °F 32.1 °F 37.4 °F 100% 30.01 in 0.1 mi South 6.9 mph - N/A Fog Fog
10:25 AM 37.4 °F 32.8 °F 37.4 °F 100% 29.98 in 0.1 mi SE 5.8 mph - N/A Fog Fog
10:36 AM 37.4 °F 32.1 °F 37.4 °F 100% 29.98 in 0.1 mi SSE 6.9 mph - N/A Fog Fog
10:38 AM 37.4 °F 32.1 °F 37.4 °F 100% 29.98 in 0.1 mi SSE 6.9 mph - N/A Fog Fog
10:55 AM 39.2 °F 34.2 °F 37.4 °F 93% 29.98 in 0.1 mi SE 6.9 mph - N/A Fog Fog
11:25 AM 39.2 °F 35.0 °F 39.2 °F 100% 29.98 in 0.2 mi SE 5.8 mph - N/A Fog Fog
11:43 AM 39.2 °F 34.2 °F 39.2 °F 100% 29.98 in 0.2 mi South 6.9 mph - N/A Fog Fog
11:55 AM 39.2 °F 35.9 °F 39.2 °F 100% 29.98 in 0.2 mi SSE 4.6 mph - N/A Fog Fog
12:25 PM 41.0 °F 38.0 °F 41.0 °F 100% 29.98 in 0.2 mi SSE 4.6 mph - N/A Fog Fog
12:38 PM 41.0 °F 38.0 °F 41.0 °F 100% 29.98 in 0.4 mi SSE 4.6 mph - N/A Fog Fog
12:55 PM 42.8 °F 40.1 °F 42.8 °F 100% 29.98 in 0.6 mi SSE 4.6 mph - N/A Fog Fog
12:57 PM 42.8 °F 39.3 °F 42.8 °F 100% 29.98 in 0.7 mi SSE 5.8 mph - N/A   Overcast
1:04 PM 42.8 °F 39.3 °F 42.8 °F 100% 29.98 in 1.1 mi SSE 5.8 mph - N/A   Overcast
1:19 PM 42.8 °F 40.1 °F 42.8 °F 100% 29.95 in 1.2 mi SSE 4.6 mph - N/A   Overcast
1:25 PM 42.8 °F 40.1 °F 42.8 °F 100% 29.95 in 1.3 mi SE 4.6 mph - N/A   Overcast
1:55 PM 44.6 °F 41.4 °F 44.6 °F 100% 29.95 in 1.7 mi SSE 5.8 mph - N/A   Overcast
2:25 PM 44.6 °F 42.2 °F 44.6 °F 100% 29.95 in 1.7 mi SSE 4.6 mph - N/A   Overcast
2:55 PM 44.6 °F 41.4 °F 44.6 °F 100% 29.95 in 1.8 mi SSE 5.8 mph - N/A   Overcast
3:25 PM 46.4 °F 43.5 °F 46.4 °F 100% 29.95 in - SSE 5.8 mph - N/A   Mostly Cloudy
3:55 PM 46.4 °F 44.3 °F 46.4 °F 100% 29.95 in - SSE 4.6 mph - N/A   Mostly Cloudy
4:10 PM 46.4 °F 44.3 °F 46.4 °F 100% 29.95 in - SSE 4.6 mph - N/A   Overcast
4:16 PM 46.4 °F 44.3 °F 46.4 °F 100% 29.95 in - SSE 4.6 mph - N/A   Overcast
4:20 PM 46.4 °F 43.5 °F 46.4 °F 100% 29.95 in - SSE 5.8 mph - N/A   Overcast
4:25 PM 46.4 °F 43.5 °F 46.4 °F 100% 29.95 in - SSE 5.8 mph - N/A   Overcast
4:36 PM 48.2 °F - 46.4 °F 93% 29.95 in - South 5.8 mph - N/A   Overcast
4:49 PM 48.2 °F - 48.2 °F 100% 29.95 in - South 5.8 mph - N/A   Overcast
4:55 PM 48.2 °F - 48.2 °F 100% 29.95 in - South 5.8 mph - N/A   Overcast
5:16 PM 48.2 °F - 48.2 °F 100% 29.95 in - South 4.6 mph - N/A   Overcast
5:17 PM 48.2 °F - 48.2 °F 100% 29.95 in - South 4.6 mph - N/A   Overcast
5:25 PM 48.2 °F - 48.2 °F 100% 29.95 in - South 4.6 mph - N/A   Overcast
5:29 PM 48.2 °F - 48.2 °F 100% 29.95 in - South 4.6 mph - N/A   Overcast
5:34 PM 48.2 °F - 48.2 °F 100% 29.95 in - South 4.6 mph - N/A   Overcast
5:41 PM 48.2 °F - 48.2 °F 100% 29.95 in - South 4.6 mph - N/A   Overcast
5:45 PM 48.2 °F - 48.2 °F 100% 29.95 in - South 4.6 mph - N/A   Overcast
5:55 PM 48.2 °F - 48.2 °F 100% 29.95 in - South 4.6 mph - N/A   Overcast
5:59 PM 48.2 °F - 48.2 °F 100% 29.95 in - South 4.6 mph - N/A   Overcast
6:10 PM 48.2 °F - 48.2 °F 100% 29.95 in - South 4.6 mph - N/A   Overcast
6:22 PM 48.2 °F - 48.2 °F 100% 29.95 in - South 4.6 mph - N/A   Overcast
6:25 PM 48.2 °F - 48.2 °F 100% 29.95 in - South 4.6 mph - N/A   Overcast
6:55 PM 48.2 °F - 48.2 °F 100% 29.95 in 2.8 mi SSW 2.3 mph - N/A   Overcast
7:25 PM 48.2 °F - 48.2 °F 100% 29.98 in - WSW 2.3 mph - N/A   Overcast
7:28 PM 48.2 °F - 48.2 °F 100% 29.98 in 2.2 mi SW 2.3 mph - N/A   Overcast
7:55 PM 48.2 °F - 48.2 °F 100% 29.98 in - South 3.5 mph - N/A   Overcast
7:59 PM 48.2 °F - 48.2 °F 100% 29.98 in - South 3.5 mph - N/A   Overcast
8:00 PM 48.2 °F - 48.2 °F 100% 29.98 in - South 3.5 mph - N/A   Overcast
8:09 PM 48.2 °F - 48.2 °F 100% 29.98 in - South 4.6 mph - N/A   Overcast
8:14 PM 48.2 °F - 48.2 °F 100% 29.98 in - SSW 4.6 mph - N/A   Overcast
8:25 PM 50.0 °F - 50.0 °F 100% 29.98 in - SSW 3.5 mph - N/A   Overcast
8:30 PM 50.0 °F - 50.0 °F 100% 29.98 in - SSW 4.6 mph - N/A   Mostly Cloudy
8:47 PM 50.0 °F - 50.0 °F 100% 29.98 in - SSW 5.8 mph - N/A   Overcast
8:51 PM 50.0 °F - 50.0 °F 100% 29.98 in 2.2 mi SSW 6.9 mph - N/A   Overcast
8:55 PM 50.0 °F - 50.0 °F 100% 29.98 in - SSW 5.8 mph - N/A   Overcast
8:59 PM 50.0 °F - 50.0 °F 100% 29.98 in 2.2 mi SSW 5.8 mph - N/A   Overcast
9:06 PM 50.0 °F - 50.0 °F 100% 29.98 in - SSW 5.8 mph - N/A   Overcast
9:25 PM 50.0 °F - 50.0 °F 100% 29.98 in 1.8 mi SSW 8.1 mph - N/A   Overcast
9:27 PM 50.0 °F - 50.0 °F 100% 29.98 in 1.7 mi SSW 8.1 mph - N/A   Overcast
9:55 PM 50.0 °F - 50.0 °F 100% 29.98 in 1.7 mi South 6.9 mph - N/A   Overcast
10:25 PM 50.0 °F - 50.0 °F 100% 29.98 in 2.2 mi South 5.8 mph - N/A   Overcast
10:29 PM 50.0 °F - 50.0 °F 100% 29.98 in - South 4.6 mph - N/A   Overcast
10:33 PM 50.0 °F - 50.0 °F 100% 29.98 in - South 4.6 mph - N/A   Overcast
10:41 PM 50.0 °F - 50.0 °F 100% 29.98 in - South 4.6 mph - N/A   Overcast
10:55 PM 50.0 °F - 50.0 °F 100% 29.98 in - South 5.8 mph - N/A   Overcast
11:08 PM 50.0 °F - 50.0 °F 100% 29.98 in 3.1 mi South 8.1 mph - N/A   Overcast
11:15 PM 50.0 °F - 50.0 °F 100% 29.98 in 3.1 mi South 6.9 mph - N/A   Overcast
11:20 PM 50.0 °F - 50.0 °F 100% 29.98 in - South 8.1 mph - N/A   Overcast
11:25 PM 50.0 °F - 50.0 °F 100% 29.98 in 3.1 mi South 8.1 mph - N/A   Overcast
11:35 PM 50.0 °F - 50.0 °F 100% 29.98 in 3.1 mi South 6.9 mph - N/A   Overcast
11:55 PM 50.0 °F - 50.0 °F 100% 29.98 in 3.1 mi South 8.1 mph - N/A   Overcast